AG4JW Arlington VA US current weather conditions

sailwx.info

Wind from 336 at 0 knots gusting 5

Air temperature 33.9° C
Dewpoint 22.6° C

Last reported at 2019-Aug-19 19:59 UTC.
Time now 2019-Aug-19 20:19 UTC

Location: N 38°54' W 077°09'.
View on Google Maps.

See reports from other nearby stations

  
Tides and Currents Weather Stations Pressure Air Temp Water Temp Dewpoint Dewpoint Depression Visibility Wind Speed Wind Dir Waves Ship Positions
date/time (UTC)wind fromknots sea level pressurealtimeterstation pressurevisibilityair tempwater tempwave heightnotes
2019-Aug-19 19:59 336 0 gusting 5 33.9
2019-Aug-19 19:49 339 0 gusting 7 33.9
2019-Aug-19 19:38 348 0 gusting 7 33.9
2019-Aug-19 19:28 330 35.0
2019-Aug-19 19:18 243 35.0
2019-Aug-19 19:09 345 35.0
2019-Aug-19 18:58 264 35.6
2019-Aug-19 18:48 299 35.0
2019-Aug-19 18:38 242 0 gusting 6 34.4
2019-Aug-19 18:28 239 35.0
2019-Aug-19 18:18 187 35.6
2019-Aug-19 18:09 217 35.6
2019-Aug-19 17:59 289 35.0
2019-Aug-19 17:48 277 34.4
2019-Aug-19 17:39 265 34.4
2019-Aug-19 17:29 327 33.9
2019-Aug-19 17:18 279 33.9
2019-Aug-19 17:07 332 33.9
2019-Aug-19 16:57 184 33.9
2019-Aug-19 16:47 178 33.3
2019-Aug-19 16:37 338 33.3
2019-Aug-19 16:26 225 33.9
2019-Aug-19 16:16 246 33.3
2019-Aug-19 16:05 184 33.3
2019-Aug-19 15:55 185 32.8
2019-Aug-19 15:45 184 32.8
2019-Aug-19 15:34 248 31.7
2019-Aug-19 15:25 246 31.1
2019-Aug-19 15:14 326 31.1
2019-Aug-19 15:04 112 31.1
2019-Aug-19 14:54 111 30.6
2019-Aug-19 14:44 182 30.0
2019-Aug-19 14:34 182 29.4
2019-Aug-19 14:24 321 28.9
2019-Aug-19 14:14 315 28.3
2019-Aug-19 14:04 315 27.8
2019-Aug-19 13:54 321 26.7
2019-Aug-19 13:43 241 26.7
2019-Aug-19 13:34 326 26.1
2019-Aug-19 13:24 314 26.1
2019-Aug-19 13:14 336 26.1
2019-Aug-19 13:03 355 26.1
2019-Aug-19 12:53 331 26.1
2019-Aug-19 12:43 330 26.1
2019-Aug-19 12:33 327 25.0
2019-Aug-19 12:22 327 25.0
2019-Aug-19 12:12 327 25.0
2019-Aug-19 12:02 328 25.0
2019-Aug-19 11:52 172 25.0
2019-Aug-19 11:42 172 25.0
2019-Aug-19 11:31 172 24.4
2019-Aug-19 11:22 172 24.4
2019-Aug-19 11:12 143 24.4
2019-Aug-19 11:02 113 23.9
2019-Aug-19 10:52 103 23.9
2019-Aug-19 10:42 103 23.9
2019-Aug-19 10:32 103 23.9
2019-Aug-19 10:22 103 23.9
2019-Aug-19 10:11 103 23.3
2019-Aug-19 10:01 103 22.8
2019-Aug-19 09:50 103 22.8
2019-Aug-19 09:40 103 22.8
2019-Aug-19 09:30 103 22.8
2019-Aug-19 09:19 103 22.8
2019-Aug-19 09:09 103 23.3
2019-Aug-19 08:59 103 23.3
2019-Aug-19 08:50 103 23.3
2019-Aug-19 08:39 103 23.3
2019-Aug-19 08:29 103 23.3
2019-Aug-19 08:19 103 23.9
2019-Aug-19 08:09 103 23.9
2019-Aug-19 07:59 103 23.9
2019-Aug-19 07:49 103 24.4
2019-Aug-19 07:39 103 24.4
2019-Aug-19 07:28 103 24.4
2019-Aug-19 07:19 103 25.0
2019-Aug-19 07:08 103 25.0
2019-Aug-19 06:58 103 25.0
2019-Aug-19 06:48 103 25.0
2019-Aug-19 06:37 103 25.0
2019-Aug-19 06:28 103 25.0
2019-Aug-19 06:17 103 25.0
2019-Aug-19 06:07 103 25.0
2019-Aug-19 05:57 103 25.0
2019-Aug-19 05:46 103 25.0
2019-Aug-19 05:36 103 25.0
2019-Aug-19 05:26 103 25.0
2019-Aug-19 05:16 103 25.0
2019-Aug-19 05:06 103 25.6
2019-Aug-19 04:56 103 25.6
2019-Aug-19 04:46 103 26.1
2019-Aug-19 04:36 103 26.1
2019-Aug-19 04:26 103 26.1
2019-Aug-19 04:16 099 26.1
2019-Aug-19 04:05 099 26.1
2019-Aug-19 03:55 099 26.1
2019-Aug-19 03:46 128 26.1
2019-Aug-19 03:35 093 26.1
2019-Aug-19 03:26 114 26.1
2019-Aug-19 03:15 135 26.1
2019-Aug-19 03:05 046 26.1
2019-Aug-19 02:56 046 26.1
2019-Aug-19 02:46 350 26.1
2019-Aug-19 02:36 350 26.7
2019-Aug-19 02:25 350 26.7
2019-Aug-19 02:15 350 27.2
2019-Aug-19 02:06 355 27.2
2019-Aug-19 01:56 335 27.2
2019-Aug-19 01:46 299 2 gusting 9 27.8
2019-Aug-19 01:36 317 28.9
2019-Aug-19 01:26 173 29.4
2019-Aug-19 01:16 173 30.0
2019-Aug-19 01:06 173 30.0
2019-Aug-19 00:56 173 30.0
2019-Aug-19 00:46 173 30.6
2019-Aug-19 00:35 173 30.6
2019-Aug-19 00:25 173 30.6
2019-Aug-19 00:15 173 31.1
2019-Aug-19 00:05 173 31.1
2019-Aug-18 23:55 171 31.1
2019-Aug-18 23:45 171 31.7
2019-Aug-18 23:35 170 31.7
2019-Aug-18 23:25 171 31.7
2019-Aug-18 23:14 171 32.2
2019-Aug-18 23:04 163 32.8
2019-Aug-18 22:54 192 33.3
2019-Aug-18 22:44 190 33.9
2019-Aug-18 22:34 155 33.9
2019-Aug-18 22:24 177 33.9
2019-Aug-18 22:13 128 33.9
2019-Aug-18 22:03 166 34.4
2019-Aug-18 21:53 169 0 34.4
2019-Aug-18 21:42 167 33.9
2019-Aug-18 21:32 205 34.4
2019-Aug-18 21:22 178 0 34.4
2019-Aug-18 21:12 188 34.4
2019-Aug-18 21:02 100 35.0
2019-Aug-18 20:52 178 34.4
2019-Aug-18 20:42 202 34.4
2019-Aug-18 20:32 189 33.9
2019-Aug-18 20:22 165 33.9
2019-Aug-18 20:11 131 33.9
2019-Aug-18 20:02 190 33.9
2019-Aug-18 19:52 097 33.9
2019-Aug-18 19:42 102 35.0
2019-Aug-18 19:32 078 34.4
2019-Aug-18 19:22 176 33.9
2019-Aug-18 19:12 180 34.4
2019-Aug-18 19:01 108 35.6
2019-Aug-18 18:52 167 36.1
2019-Aug-18 18:42 167 36.1
2019-Aug-18 18:32 211 35.6
2019-Aug-18 18:22 278 35.0
2019-Aug-18 18:12 212 35.0
2019-Aug-18 18:02 119 34.4
2019-Aug-18 17:52 193 33.9
2019-Aug-18 17:42 178 33.9
2019-Aug-18 17:32 171 33.9
2019-Aug-18 17:22 177 33.3
2019-Aug-18 17:11 176 33.3
2019-Aug-18 17:01 173 33.9
2019-Aug-18 16:50 167 33.3
2019-Aug-18 16:40 226 33.3
2019-Aug-18 16:30 173 32.8
2019-Aug-18 16:20 174 33.3
2019-Aug-18 16:10 172 33.3
2019-Aug-18 16:00 205 32.8
2019-Aug-18 15:49 194 32.8
2019-Aug-18 15:39 229 32.2
2019-Aug-18 15:28 162 31.7
2019-Aug-18 15:18 193 31.1
2019-Aug-18 15:08 173 31.7
2019-Aug-18 14:58 138 31.7
2019-Aug-18 14:48 165 31.1
2019-Aug-18 14:38 157 31.1
2019-Aug-18 14:28 192 30.6
2019-Aug-18 14:18 198 30.0
2019-Aug-18 14:08 198 30.0
2019-Aug-18 13:58 206 29.4
2019-Aug-18 13:48 206 28.9
2019-Aug-18 13:37 206 28.3
2019-Aug-18 13:27 206 27.8
2019-Aug-18 13:17 206 27.2
2019-Aug-18 13:07 206 27.2
2019-Aug-18 12:57 206 26.7
2019-Aug-18 12:47 206 26.1
2019-Aug-18 12:37 206 26.1
2019-Aug-18 12:26 206 26.1
2019-Aug-18 12:16 209 25.6
2019-Aug-18 12:06 209 25.0
2019-Aug-18 11:56 209 24.4
2019-Aug-18 11:46 209 24.4
2019-Aug-18 11:36 209 23.9
2019-Aug-18 11:26 209 23.9
2019-Aug-18 11:15 209 23.3
2019-Aug-18 11:05 209 23.3
2019-Aug-18 10:55 209 23.3
2019-Aug-18 10:45 209 23.3
2019-Aug-18 10:34 209 23.3
2019-Aug-18 10:25 209 23.3
2019-Aug-18 10:14 209 23.3
2019-Aug-18 10:04 209 23.9
2019-Aug-18 09:54 209 23.9
2019-Aug-18 09:43 209 23.9
2019-Aug-18 09:33 209 23.9
2019-Aug-18 09:23 209 23.9
2019-Aug-18 09:13 209 23.9
2019-Aug-18 09:03 209 23.9
2019-Aug-18 08:53 209 24.4
2019-Aug-18 08:43 209 24.4
2019-Aug-18 08:33 209 24.4
2019-Aug-18 08:23 209 24.4
2019-Aug-18 08:12 209 24.4
2019-Aug-18 08:02 209 24.4
2019-Aug-18 07:52 209 24.4
2019-Aug-18 07:42 209 24.4
2019-Aug-18 07:32 209 24.4
2019-Aug-18 07:22 209 24.4
2019-Aug-18 07:13 209 25.0
2019-Aug-18 07:03 209 25.0
2019-Aug-18 06:52 209 25.0
2019-Aug-18 06:42 209 25.0
2019-Aug-18 06:32 209 25.0
2019-Aug-18 06:22 209 25.0
2019-Aug-18 06:12 209 25.6
2019-Aug-18 06:02 209 25.6
2019-Aug-18 05:52 209 25.6
2019-Aug-18 05:41 217 25.6
2019-Aug-18 05:31 326 25.6
2019-Aug-18 05:21 326 25.6
2019-Aug-18 05:12 326 25.6
2019-Aug-18 05:01 326 25.6
2019-Aug-18 04:51 326 25.6
2019-Aug-18 04:41 326 25.6
2019-Aug-18 04:31 326 25.6
2019-Aug-18 04:21 326 25.6
2019-Aug-18 04:11 326 25.6
2019-Aug-18 04:01 326 25.6
2019-Aug-18 03:50 326 26.1
2019-Aug-18 03:40 326 25.6
2019-Aug-18 03:29 326 25.6
2019-Aug-18 03:19 326 25.6
2019-Aug-18 03:09 326 26.1
2019-Aug-18 02:59 326 26.1
2019-Aug-18 02:49 326 26.1
2019-Aug-18 02:40 326 26.1
2019-Aug-18 02:30 326 26.1
2019-Aug-18 02:20 326 26.1
2019-Aug-18 02:10 326 26.7
2019-Aug-18 02:00 326 26.7
2019-Aug-18 01:50 326 26.7
2019-Aug-18 01:39 326 26.7
2019-Aug-18 01:30 326 26.7
2019-Aug-18 01:19 326 26.7
2019-Aug-18 01:09 326 26.7
2019-Aug-18 00:59 326 27.2
2019-Aug-18 00:48 326 27.2
2019-Aug-18 00:39 326 27.8
2019-Aug-18 00:29 326 27.8
2019-Aug-18 00:18 325 28.9
2019-Aug-18 00:08 157 29.4
2019-Aug-17 23:58 160 29.4
2019-Aug-17 23:47 180 30.0
2019-Aug-17 23:37 180 30.0
2019-Aug-17 23:27 174 30.6
2019-Aug-17 23:16 165 30.6
2019-Aug-17 23:07 195 31.1
2019-Aug-17 22:57 110 31.1
2019-Aug-17 22:47 109 30.6
2019-Aug-17 22:37 107 30.0
2019-Aug-17 22:26 108 30.0
2019-Aug-17 22:16 113 30.0
2019-Aug-17 22:06 104 30.0
2019-Aug-17 21:56 106 31.1
2019-Aug-17 21:46 124 31.1
2019-Aug-17 21:36 088 0 gusting 9 32.2
2019-Aug-17 21:25 212 33.3
2019-Aug-17 21:15 262 33.3
2019-Aug-17 21:05 263 32.8
2019-Aug-17 20:54 263 32.2
2019-Aug-17 20:44 292 32.8
2019-Aug-17 20:34 292 32.8
2019-Aug-17 20:23 294 32.2
2019-Aug-17 20:13 294 32.2
2019-Aug-17 20:03 188 32.2